Date,TemperatureHighF,TemperatureAvgF,TemperatureLowF,DewpointHighF,DewpointAvgF,DewpointLowF,HumidityHigh,HumidityAvg,HumidityLow,PressureMaxIn,PressureMinIn,WindSpeedMaxMPH,WindSpeedAvgMPH,GustSpeedMaxMPH,PrecipitationSumIn
2013-1-1,25.7,22.6,19.9,15.5,12.0,9.2,71,63,57,30.14,30.02,5,2,7,0.00
2013-1-2,26.7,24.1,19.5,20.4,15.9,8.6,77,71,62,30.13,30.05,10,3,10,0.00
2013-1-3,29.5,25.7,19.7,23.4,18.4,9.1,83,74,63,30.13,29.99,6,3,13,0.00
2013-1-4,33.4,29.8,26.4,24.0,21.7,17.6,81,72,65,30.13,29.99,13,7,20,0.00
2013-1-5,36.9,30.3,22.2,31.0,24.7,18.4,92,80,57,30.17,29.91,9,3,16,0.05
2013-1-6,36.2,33.5,30.7,32.9,28.4,21.0,92,82,67,30.23,29.79,7,3,11,0.22
2013-1-7,37.6,32.0,27.2,24.3,20.3,13.0,80,63,37,30.26,30.05,11,6,22,0.00
2013-1-8,37.9,32.4,26.6,26.4,23.8,21.1,81,71,60,30.14,30.02,6,2,11,0.01
2013-1-9,44.1,38.9,31.5,32.2,27.6,22.9,74,64,46,30.37,29.91,15,6,25,0.01
2013-1-10,45.1,34.0,23.5,32.3,25.1,20.5,90,72,42,30.49,30.00,7,3,11,0.17
2013-1-11,52.2,45.6,35.9,50.5,43.1,32.4,94,91,85,29.98,29.64,10,4,13,0.61
2013-1-12,56.2,48.1,36.8,46.2,39.5,28.9,86,73,54,29.89,29.66,12,5,22,0.02
2013-1-13,36.5,30.8,24.1,31.8,26.9,16.4,92,86,71,30.07,29.78,7,3,14,0.16
2013-1-14,25.3,21.4,16.9,16.5,13.7,12.4,83,72,62,30.39,30.07,8,2,12,0.00
2013-1-15,30.9,23.7,17.3,18.9,15.7,13.0,87,72,53,30.38,30.10,5,1,7,0.00
2013-1-16,35.0,27.2,17.5,27.9,19.4,13.2,84,73,51,30.10,29.75,12,4,24,0.00
2013-1-17,34.9,27.0,20.6,26.4,14.1,5.6,71,58,50,30.31,29.92,9,4,19,0.00
2013-1-18,40.1,28.4,17.8,27.7,15.9,6.4,79,59,52,30.37,29.83,13,6,21,0.00
2013-1-19,44.5,41.6,38.6,34.8,30.4,16.9,72,65,40,29.82,29.53,17,9,27,0.00
2013-1-20,38.2,17.4,14.4,20.2,8.7,5.9,78,69,44,30.18,29.57,15,5,24,0.00
2013-1-21,15.4,10.4,2.8,9.9,5.1,-2.8,82,79,74,30.15,30.01,8,3,12,0.00
2013-1-22,9.3,4.6,0.9,3.8,-1.1,-4.9,79,77,74,30.28,30.16,5,1,8,0.00
2013-1-23,17.8,11.2,3.0,13.4,6.4,-2.3,85,81,77,30.28,30.03,9,1,9,0.00
2013-1-24,17.3,10.5,0.5,6.2,3.2,-5.0,82,72,58,30.60,30.18,3,0,5,0.09
2013-1-25,21.4,17.6,12.6,18.1,11.0,2.2,87,75,61,30.43,29.93,7,2,12,0.00
2013-1-26,29.5,23.0,19.4,18.1,16.1,13.6,87,76,55,30.34,30.02,7,1,8,0.01
2013-1-27,31.2,28.7,25.0,28.3,21.1,15.2,89,74,60,30.36,29.97,7,4,11,0.00
2013-1-28,44.1,36.5,31.3,42.8,33.8,28.4,95,90,82,29.97,29.76,9,2,19,0.11
2013-1-29,55.9,46.9,33.7,54.6,45.2,30.5,96,94,87,29.90,29.31,10,4,13,1.23
2013-1-30,49.6,39.0,24.7,48.2,37.1,20.8,96,93,84,29.33,29.04,10,3,17,0.39
2013-1-31,24.7,18.8,15.7,20.8,15.0,12.3,87,85,74,29.90,29.34,7,4,17,0.00
2013-2-1,16.2,14.1,10.9,12.7,10.0,6.5,86,84,81,30.21,29.91,6,3,12,0.00
2013-2-2,17.2,13.7,5.6,14.0,8.9,0.6,87,81,71,30.13,29.97,4,1,7,0.00
2013-2-3,19.7,14.4,6.1,15.4,9.5,1.5,83,80,77,30.00,29.86,6,1,11,0.00
2013-2-4,22.9,17.2,10.5,16.0,12.2,6.1,86,81,72,29.98,29.86,3,1,5,0.00
2013-2-5,28.4,19.0,4.5,25.6,14.6,0.0,90,83,75,29.98,29.74,8,3,13,0.00
2013-2-6,33.2,24.8,11.2,22.7,16.9,7.3,87,72,57,30.21,29.98,6,1,7,0.18
2013-2-7,32.1,29.6,27.5,30.0,24.4,18.8,93,81,66,30.16,29.83,6,3,11,0.01
2013-2-8,32.1,26.9,14.0,28.0,20.8,9.8,92,78,58,30.34,29.82,7,3,13,0.10
2013-2-9,32.5,19.4,3.5,19.0,11.3,-1.3,85,71,55,30.40,30.16,6,2,8,0.05
2013-2-10,42.1,30.0,18.4,39.7,24.6,13.7,91,80,65,30.15,29.48,8,3,11,0.50
2013-2-11,44.2,34.8,29.8,41.4,29.4,20.9,94,81,66,29.85,29.44,14,8,28,0.09
2013-2-12,30.0,28.3,26.4,22.5,20.7,18.6,77,73,69,30.01,29.86,8,4,15,0.00
2013-2-13,38.3,29.9,22.5,28.3,23.3,18.5,88,77,60,29.88,29.67,7,2,13,0.02
2013-2-14,38.8,31.0,25.3,32.8,28.0,20.9,92,88,74,29.86,29.57,10,4,18,0.12
2013-2-15,27.8,24.0,19.9,20.9,15.0,11.4,85,69,53,30.12,29.87,6,3,11,0.00
2013-2-16,21.6,17.7,9.7,16.4,11.6,5.3,87,77,59,30.10,30.01,6,2,11,0.01
2013-2-17,24.1,13.0,-0.6,8.5,3.5,-6.1,82,67,46,30.21,30.09,6,1,7,0.00
2013-2-18,45.2,34.0,18.9,40.4,22.0,7.7,90,62,49,30.09,29.36,9,4,17,0.15
2013-2-19,42.9,24.3,16.1,39.5,20.6,11.8,90,86,80,29.96,29.30,14,8,21,0.08
2013-2-20,22.2,18.7,15.1,14.1,11.5,8.7,84,73,65,30.27,29.96,9,5,16,0.00
2013-2-21,26.9,22.7,20.3,16.1,13.7,10.9,73,68,60,30.34,30.13,9,4,17,0.00
2013-2-22,32.2,26.0,20.3,30.4,21.8,12.1,93,84,70,30.14,29.79,10,5,22,0.00
2013-2-23,30.9,28.3,25.6,27.2,23.1,18.2,87,81,61,29.87,29.78,10,4,19,0.00
2013-2-24,37.8,30.5,21.8,25.8,22.4,18.0,85,72,53,30.11,29.85,8,2,11,0.08
2013-2-25,40.6,28.3,14.8,27.4,18.9,11.4,90,70,45,30.19,30.03,5,1,7,0.00
2013-2-26,34.7,31.3,28.4,30.7,23.5,19.1,94,74,58,30.06,29.48,12,5,24,0.04
2013-2-27,36.3,33.6,32.2,35.0,32.2,30.7,95,94,94,29.57,29.43,4,1,11,0.44
2013-2-28,36.9,33.5,30.0,31.6,27.5,21.4,94,79,68,29.97,29.57,8,4,13,0.14
2013-3-1,30.0,27.0,21.6,21.7,16.3,12.9,71,64,54,30.13,29.97,7,3,12,0.00
2013-3-2,30.3,21.8,14.0,14.8,12.1,9.2,83,67,50,30.14,30.06,8,2,13,0.00
2013-3-3,32.2,21.3,10.4,15.2,11.6,6.3,85,67,44,30.08,29.99,7,2,10,0.00
2013-3-4,35.6,22.3,8.3,16.6,11.1,3.9,86,64,37,30.15,30.03,4,1,6,0.00
2013-3-5,32.5,26.9,21.8,20.9,16.1,10.8,77,64,56,30.07,29.82,10,4,17,0.00
2013-3-6,38.8,32.9,26.7,27.0,24.7,20.5,83,72,59,30.19,29.91,7,3,10,0.00
2013-3-7,36.6,31.7,22.5,27.3,21.6,17.3,83,67,47,30.38,30.18,6,2,8,0.00
2013-3-8,42.2,28.6,15.6,21.8,18.3,12.2,89,67,40,30.47,30.34,4,1,8,0.00
2013-3-9,42.8,34.9,23.9,31.3,24.3,18.6,84,66,51,30.34,29.89,8,3,11,0.00
2013-3-10,50.8,44.9,40.6,43.6,38.6,30.8,91,79,57,29.89,29.62,6,2,12,0.27
2013-3-11,51.6,43.8,34.1,47.0,40.1,31.5,94,87,64,29.62,29.42,10,4,20,0.19
2013-3-12,34.7,31.5,28.4,32.1,25.1,20.2,90,77,61,29.85,29.60,10,5,17,0.02
2013-3-13,31.2,27.0,22.9,24.0,16.1,10.0,85,65,44,30.21,29.85,10,4,26,0.00
2013-3-14,38.9,30.3,19.7,23.5,17.2,13.8,85,59,37,30.24,30.04,7,2,14,0.00
2013-3-15,38.9,35.7,32.4,32.7,30.0,23.7,89,80,70,30.04,29.80,7,3,14,0.02
2013-3-16,34.7,30.6,26.6,22.1,19.1,16.2,73,62,51,30.04,29.88,6,3,11,0.09
2013-3-17,31.5,27.3,23.8,18.6,12.6,7.0,67,54,40,30.23,30.04,8,4,14,0.00
2013-3-18,33.5,27.6,21.3,30.8,21.6,13.0,92,78,61,30.09,29.53,13,5,20,0.00
2013-3-19,29.0,23.7,19.7,24.2,16.0,10.4,87,73,48,29.92,29.59,13,8,28,0.00
2013-3-20,27.2,21.3,14.6,13.5,11.7,9.7,82,67,49,29.96,29.89,8,4,17,0.00
2013-3-21,30.0,23.4,12.8,21.7,16.3,8.9,86,74,60,29.95,29.88,7,3,17,0.01
2013-3-22,35.8,29.3,23.0,20.9,18.0,14.7,79,63,52,30.01,29.94,7,2,13,0.07
2013-3-23,34.9,29.6,22.5,21.7,20.0,17.2,81,68,55,30.10,30.00,4,1,10,0.00
2013-3-24,37.6,30.1,22.9,23.0,20.6,15.6,86,69,50,30.02,29.66,9,3,22,0.00
2013-3-25,38.6,33.8,30.1,24.5,22.1,18.9,71,62,49,29.94,29.62,10,6,18,0.00
2013-3-26,40.2,34.2,29.4,32.4,27.4,23.7,89,76,58,30.13,29.94,7,3,13,0.04
2013-3-27,42.9,36.2,30.3,29.3,24.6,18.8,89,65,42,30.21,30.13,9,3,18,0.12
2013-3-28,48.5,37.5,28.1,27.3,22.4,15.8,85,57,32,30.26,30.21,7,2,17,0.00
2013-3-29,49.8,35.7,22.4,30.4,22.7,18.3,91,63,30,30.26,30.19,7,2,17,0.00
2013-3-30,56.5,39.4,21.4,32.9,24.0,17.9,91,61,27,30.19,29.82,9,2,17,0.00
2013-3-31,48.8,42.6,36.6,39.9,34.8,27.5,91,75,54,29.81,29.61,8,4,17,0.04
2013-4-1,36.5,29.8,27.0,29.0,14.2,8.7,83,53,40,30.07,29.72,10,5,20,0.00
2013-4-2,36.8,30.4,20.8,18.8,13.6,9.1,80,51,33,30.23,30.07,10,3,21,0.00
2013-4-3,44.5,32.1,21.6,19.4,14.7,8.5,76,51,26,30.41,30.22,8,2,15,0.00
2013-4-4,51.6,38.8,23.0,26.2,18.5,14.5,76,47,26,30.30,29.90,11,4,19,0.00
2013-4-5,47.7,39.3,29.5,26.0,20.4,12.8,70,49,26,30.15,29.90,8,3,18,0.00
2013-4-8,52.9,43.2,38.0,50.0,40.3,34.5,93,90,77,29.93,29.58,15,6,21,0.42
2013-4-9,47.3,42.3,38.2,45.4,40.6,36.4,95,94,91,29.99,29.81,9,3,16,1.16
2013-4-10,41.9,40.2,37.8,40.0,36.4,30.3,93,86,74,29.96,29.74,9,5,17,0.34
2013-4-11,38.5,36.2,35.2,33.9,32.5,28.0,90,86,66,29.92,29.58,14,8,24,0.29
2013-4-12,41.1,36.9,33.5,36.4,33.0,31.1,93,86,71,29.71,29.50,11,5,19,0.12
2013-4-13,39.8,36.3,34.4,34.5,28.6,22.7,92,74,52,29.93,29.71,12,6,21,0.09
2013-4-14,49.8,38.8,29.7,38.3,31.6,25.0,90,76,60,30.04,29.76,10,4,18,0.41
2013-4-15,64.7,54.2,45.1,53.3,44.6,-99.9,92,72,61,29.87,29.71,12,4,17,0.08
2013-4-16,49.9,45.2,40.1,44.2,34.6,27.1,93,69,43,30.20,29.85,9,3,17,0.06
2013-4-17,50.4,45.1,41.3,42.4,34.4,28.4,92,67,46,30.27,29.89,13,5,19,0.06
2013-4-18,62.9,54.1,44.2,59.3,51.3,41.3,95,90,75,29.92,29.33,11,4,18,0.10
2013-4-19,57.8,38.8,32.7,53.3,31.2,22.4,90,74,60,29.72,29.36,17,10,31,0.06
2013-4-20,37.3,32.5,28.2,26.0,17.4,9.4,76,54,32,30.40,29.72,10,4,16,0.24
2013-4-21,51.7,38.4,23.6,29.5,20.9,16.4,84,53,28,30.54,30.34,7,3,13,1.01
2013-4-22,64.5,50.5,34.7,30.2,27.4,23.9,74,45,22,30.34,30.05,7,2,11,0.00
2013-4-23,63.9,50.3,39.5,48.8,39.1,28.1,91,68,40,30.05,29.78,7,3,10,0.40
2013-4-24,44.8,38.3,33.4,36.6,27.8,19.5,90,68,37,30.04,29.81,9,4,14,0.09
2013-4-25,48.0,41.6,35.5,36.6,29.9,24.8,91,65,43,30.27,29.96,10,5,19,0.20
2013-4-26,64.8,49.6,33.4,39.8,31.2,27.0,79,53,29,30.34,30.19,10,4,17,0.00
2013-4-27,70.3,57.9,41.8,43.9,37.9,29.1,86,51,23,30.23,29.99,7,2,10,0.00
2013-4-28,64.5,57.7,49.6,50.8,43.8,34.8,83,61,47,29.99,29.74,6,2,10,0.00
2013-4-29,70.3,58.5,43.9,53.1,48.4,41.7,94,72,48,29.86,29.75,7,2,12,0.00
2013-4-30,79.2,66.6,55.9,58.1,54.0,49.2,89,65,45,29.88,29.76,10,5,16,0.46
2013-5-1,85.1,73.1,61.2,58.0,54.0,48.6,74,54,29,30.09,29.89,8,2,14,0.00
2013-5-2,83.0,68.9,57.3,57.4,53.1,46.9,79,59,31,30.10,30.00,7,2,12,0.00
2013-5-3,80.7,65.1,51.7,56.4,50.3,33.0,90,62,27,30.03,29.89,8,2,11,0.00
2013-5-4,74.0,66.4,57.6,46.4,39.7,33.9,54,39,24,29.99,29.91,8,3,13,0.00
2013-5-5,74.9,64.6,55.6,45.5,37.4,28.7,52,38,21,29.99,29.91,7,2,14,0.00
2013-5-6,76.0,62.4,48.2,46.0,36.9,26.4,71,43,17,29.98,29.88,4,1,7,0.00
2013-5-7,78.6,64.4,47.7,51.2,45.1,38.9,92,55,28,29.98,29.89,4,1,10,0.00
2013-5-8,80.7,67.1,52.2,54.1,47.6,41.0,90,54,27,29.95,29.87,5,1,11,0.00
2013-5-9,81.2,64.4,48.8,51.5,44.8,35.8,85,55,22,29.90,29.80,7,1,13,0.00
2013-5-10,57.6,49.6,45.1,53.1,46.1,41.6,92,88,78,29.86,29.70,6,2,12,0.42
2013-5-11,52.2,45.5,37.3,46.7,39.7,30.3,90,81,52,29.89,29.69,12,3,24,0.07
2013-5-12,45.7,40.4,36.2,34.2,27.7,23.0,86,61,42,30.07,29.87,7,4,17,0.00
2013-5-13,53.2,42.7,27.9,34.5,25.0,16.5,92,55,24,30.13,30.00,6,1,11,0.00
2013-5-14,72.7,60.0,46.1,52.5,40.0,24.9,78,48,38,30.00,29.55,7,3,16,0.00
2013-5-15,76.5,68.4,54.4,56.9,47.5,35.4,77,49,27,29.75,29.46,10,3,12,0.00
2013-5-16,80.1,63.8,45.4,48.8,43.9,37.5,91,54,24,29.92,29.75,6,1,10,0.00
2013-5-17,68.4,61.4,53.5,45.3,41.1,35.3,56,48,33,30.03,29.92,5,2,12,0.00
2013-5-18,81.8,68.1,55.4,58.7,48.7,41.8,69,51,33,30.05,29.90,5,1,11,0.00
2013-5-19,86.3,74.0,57.5,60.0,53.2,43.9,67,49,37,29.92,29.73,6,1,8,0.00
2013-5-20,86.7,77.4,68.1,69.0,60.7,52.9,79,58,32,29.76,29.64,8,3,17,0.02
2013-5-21,80.1,72.1,62.7,63.6,61.0,58.8,93,70,49,29.70,29.60,12,3,19,0.47
2013-5-22,70.1,64.6,56.7,65.0,60.8,54.6,93,88,73,29.63,29.54,9,2,15,0.41
2013-5-23,56.5,50.9,43.1,54.5,46.8,33.3,95,86,65,30.17,29.63,8,3,16,0.46
2013-5-24,58.3,47.2,35.6,41.6,35.8,31.8,87,66,45,30.33,30.17,6,2,10,0.00
2013-5-25,65.8,52.4,38.0,42.7,35.7,27.0,93,59,24,30.34,30.21,3,1,8,0.00
2013-5-26,69.9,57.2,42.2,41.2,37.0,30.4,90,53,25,30.27,30.12,4,1,8,0.00
2013-5-27,59.0,54.0,51.0,49.5,42.4,34.4,92,67,42,30.14,29.87,7,3,11,0.06
2013-5-28,76.5,62.8,52.5,66.9,58.8,49.4,95,87,65,29.88,29.67,7,2,21,1.11
2013-5-29,79.8,68.4,61.3,66.7,61.9,58.3,93,81,54,29.90,29.70,7,2,11,0.18
2013-5-30,85.5,77.0,67.9,66.9,63.6,59.7,86,64,48,29.88,29.77,8,3,13,0.00
2013-5-31,79.2,73.4,65.3,64.4,62.8,58.6,91,71,52,29.82,29.70,9,4,19,0.00
2013-6-1,78.8,71.2,63.2,64.4,61.1,56.9,92,72,48,29.70,29.58,10,4,24,0.00
2013-6-2,63.2,54.7,46.4,60.8,47.6,39.1,94,78,57,29.97,29.56,6,3,12,0.00
2013-6-3,65.8,53.5,39.2,45.4,39.8,33.6,94,63,36,30.04,29.96,5,1,10,0.00
2013-6-4,72.7,60.2,45.7,48.8,44.0,39.2,90,59,37,30.12,30.03,4,1,8,0.00
2013-6-5,70.1,61.9,57.2,49.7,42.1,31.0,76,50,29,30.08,29.93,7,2,12,0.00
2013-6-6,64.5,58.9,55.0,52.3,49.4,44.8,85,71,53,29.93,29.82,5,2,8,0.00
2013-6-7,74.2,61.7,50.2,49.0,45.3,39.5,84,58,29,29.88,29.78,7,2,10,0.00
2013-6-8,74.4,63.6,50.4,53.4,48.0,37.2,90,61,27,29.96,29.83,3,1,10,0.00
2013-6-9,81.6,68.6,56.5,63.4,56.0,51.6,88,66,42,29.97,29.80,6,2,17,0.00
2013-6-10,72.7,66.7,62.4,64.6,61.3,54.4,93,83,62,29.81,29.67,3,1,6,0.00
2013-6-11,80.5,67.2,55.7,64.4,59.6,53.9,95,78,55,29.85,29.74,6,2,11,0.00
2013-6-12,77.9,69.3,62.9,67.0,63.4,60.5,93,82,67,29.84,29.56,7,1,9,0.00
2013-6-13,75.4,67.0,59.3,62.7,57.1,53.1,93,73,48,29.90,29.52,7,3,13,0.00
2013-6-14,77.7,65.0,53.3,53.8,51.6,45.2,89,65,33,30.03,29.90,5,1,10,0.00
2013-6-15,73.0,64.4,53.6,60.7,56.7,51.2,93,77,58,29.98,29.78,6,1,16,0.00
2013-6-16,79.0,69.4,62.4,63.1,60.3,55.2,93,75,46,29.81,29.71,6,2,12,0.00
2013-6-17,83.4,70.9,57.5,62.2,56.1,50.1,94,64,32,29.83,29.76,6,2,12,0.00
2013-6-18,69.8,62.3,56.9,58.0,50.3,39.5,85,67,34,30.00,29.83,6,2,13,0.00
2013-6-19,76.5,63.6,47.4,49.2,41.6,36.8,82,47,26,30.10,30.00,4,1,7,0.00
2013-6-20,84.7,68.6,50.5,60.4,50.2,39.6,94,58,27,30.11,30.03,3,1,5,0.00
2013-6-21,84.1,74.2,63.2,62.9,59.7,55.0,83,62,42,30.07,29.88,7,2,14,0.00
2013-6-22,87.8,75.6,67.4,68.1,64.6,62.6,87,70,44,30.02,29.87,4,1,11,0.00
2013-6-23,88.0,79.0,68.6,67.9,64.3,60.9,86,63,44,29.94,29.84,7,3,14,0.00
2013-6-24,84.9,77.1,70.8,67.9,64.3,60.3,80,66,47,29.95,29.77,8,2,13,0.00
2013-6-25,80.9,71.2,66.1,69.7,65.4,60.8,93,82,66,29.89,29.73,6,2,9,0.00
2013-6-26,84.7,75.6,66.3,68.6,65.8,63.4,93,73,52,29.76,29.63,4,1,10,0.00
2013-6-27,83.8,74.8,66.9,69.4,66.5,63.6,93,77,52,29.66,29.56,7,2,11,0.00
2013-6-28,79.0,70.6,64.5,65.3,62.1,58.1,93,76,54,29.57,29.47,7,2,11,0.00
2013-6-29,72.7,67.0,61.3,63.7,60.4,57.4,94,80,65,29.67,29.48,4,1,8,0.00
2013-6-30,80.1,71.1,61.6,60.1,55.2,43.7,88,60,34,29.91,29.67,5,2,11,0.00
2013-7-1,77.7,67.2,54.2,52.7,46.9,41.5,77,50,32,30.01,29.91,7,2,16,0.00
2013-7-2,64.7,61.8,57.5,59.8,52.0,36.7,89,73,37,30.02,29.97,4,1,8,0.00
2013-7-3,80.7,67.6,60.5,65.0,58.5,49.3,88,74,51,30.00,29.93,5,1,10,0.00
2013-7-4,79.0,70.4,62.4,63.2,59.9,52.5,93,72,41,30.04,29.97,5,1,9,0.00
2013-7-5,85.5,73.8,62.7,64.6,60.9,57.0,94,68,40,30.02,29.94,3,1,7,0.00
2013-7-6,85.9,74.8,65.5,67.2,64.0,61.4,92,71,45,29.99,29.89,3,1,6,0.00
2013-7-7,85.5,76.2,70.4,68.0,66.2,63.9,88,72,50,29.93,29.85,5,1,9,0.00
2013-7-8,78.3,75.1,71.3,70.6,68.3,65.6,89,80,69,29.92,29.85,7,2,11,0.00
2013-7-9,85.9,74.6,66.9,72.3,68.1,64.8,94,81,55,29.90,29.75,5,1,10,0.00
2013-7-10,80.5,75.4,62.4,73.1,63.3,51.8,91,68,44,29.89,29.70,8,3,12,0.00
2013-7-11,81.1,72.5,58.7,57.8,53.2,46.2,90,54,31,29.99,29.90,6,2,13,0.00
2013-7-12,83.0,71.0,58.4,58.6,53.5,45.3,83,57,28,30.08,29.98,3,1,8,0.00
2013-7-13,87.4,74.1,59.3,63.3,56.1,49.8,93,59,30,30.10,30.04,4,1,8,0.00
2013-7-14,91.0,77.5,63.7,68.2,62.8,59.3,89,63,36,30.15,30.09,3,1,7,0.00
2013-7-15,93.6,81.5,70.1,73.1,69.3,66.6,93,69,43,30.18,30.12,2,0,5,0.00
2013-7-16,90.7,82.1,73.0,73.5,70.5,66.8,92,70,49,30.21,30.15,5,1,11,0.00
2013-7-17,92.1,82.7,74.4,74.3,70.8,68.5,89,69,48,30.19,30.07,5,1,12,0.00
2013-7-18,92.7,84.0,73.9,73.8,69.9,66.8,89,65,44,30.07,29.83,6,2,12,0.00
2013-7-19,91.8,84.4,78.3,71.9,69.2,64.2,77,61,44,29.84,29.61,10,5,24,0.00
2013-7-20,85.1,77.6,67.1,69.0,58.9,52.4,80,55,33,29.86,29.64,5,1,11,0.00
2013-7-21,84.0,71.0,60.5,67.7,55.4,47.0,91,59,42,29.93,29.81,7,1,13,0.00
2013-7-22,84.5,73.7,64.3,66.8,64.2,61.7,94,74,48,29.86,29.64,5,1,8,0.00
2013-7-23,77.2,71.5,57.5,68.1,59.9,46.3,88,68,46,29.87,29.56,9,3,15,0.00
2013-7-24,75.1,61.8,48.9,51.1,46.5,42.8,88,61,33,29.98,29.88,5,1,11,0.00
2013-7-25,77.4,64.9,52.2,55.7,50.9,47.9,93,64,37,30.02,29.96,5,1,8,0.00
2013-7-26,74.9,66.2,59.3,62.2,56.2,50.3,93,71,51,29.97,29.79,6,2,11,0.00
2013-7-27,68.9,61.9,55.6,61.8,55.1,46.8,94,79,61,29.80,29.74,6,2,9,0.00
2013-7-28,65.3,57.7,52.9,54.7,51.4,47.2,93,80,57,29.88,29.73,7,2,14,0.00
2013-7-29,69.9,60.9,55.9,55.2,53.5,51.5,92,78,56,30.12,29.86,4,1,9,0.00
2013-7-30,80.3,65.5,49.4,59.5,53.2,47.3,95,68,41,30.15,30.02,3,1,7,0.00
2013-7-31,70.4,65.7,62.7,64.9,61.4,58.8,92,86,79,30.03,29.84,3,0,6,0.00
2013-8-1,76.8,67.7,59.9,63.4,57.1,49.3,94,72,39,29.86,29.82,7,2,13,0.00
2013-8-2,74.0,65.8,58.4,64.2,59.8,55.5,92,81,69,29.85,29.75,5,2,14,0.00
2013-8-3,76.7,67.0,57.2,62.7,54.6,46.6,94,68,36,30.00,29.83,5,1,13,0.00
2013-8-4,73.9,63.1,53.3,55.7,50.7,43.4,93,67,39,30.13,30.00,5,1,10,0.00
2013-8-5,71.1,61.1,49.2,58.7,52.2,47.0,94,74,50,30.05,29.84,4,1,6,0.00
2013-8-6,77.4,69.4,64.5,66.1,63.0,59.0,89,80,67,29.84,29.76,5,2,10,0.00
2013-8-7,80.5,72.4,63.7,69.4,64.7,57.3,92,77,63,29.85,29.71,7,2,12,0.00
2013-8-8,79.2,67.4,56.6,60.2,52.4,45.0,93,63,32,29.96,29.86,4,1,6,0.00
2013-8-9,79.4,68.5,55.0,60.3,55.7,51.5,93,66,42,29.93,29.88,5,1,11,0.00
2013-8-10,79.6,69.2,59.9,59.9,54.0,46.6,89,62,32,30.05,29.93,3,1,6,0.00
2013-8-11,76.8,67.4,57.3,57.7,54.8,51.1,90,66,42,30.04,29.96,4,1,7,0.00
2013-8-12,76.0,67.6,64.5,67.6,62.7,56.9,94,85,69,29.96,29.78,2,0,5,0.00
2013-8-13,67.3,60.1,52.2,59.6,48.0,43.3,86,66,44,30.04,29.82,7,3,13,0.00
2013-8-14,69.6,57.2,45.7,51.0,46.4,43.0,92,70,40,30.13,30.05,6,1,10,0.00
2013-8-15,74.6,60.5,47.4,57.2,50.3,45.4,94,72,42,30.09,30.01,6,1,11,0.00
2013-8-16,80.5,65.6,51.7,60.1,52.9,47.1,94,68,33,30.12,30.04,4,0,11,0.00
2013-8-17,82.4,68.1,52.9,62.2,52.6,43.8,95,64,27,30.17,30.09,3,0,6,0.00
2013-8-18,81.4,68.1,53.9,60.1,54.6,51.1,94,66,36,30.14,30.03,5,0,6,0.00
2013-8-19,81.6,68.0,53.3,61.3,55.9,51.3,94,69,40,30.04,29.96,5,1,10,0.00
2013-8-20,84.7,72.4,60.5,65.9,61.0,57.7,92,70,46,30.03,29.96,6,2,12,0.00
2013-8-21,87.0,76.8,65.3,66.3,62.9,60.6,89,64,42,30.00,29.87,7,2,16,0.00
2013-8-22,77.6,69.8,63.5,67.8,65.2,61.4,94,86,65,30.00,29.87,12,1,13,0.00
2013-8-23,81.8,68.2,53.2,63.9,52.9,43.9,94,64,27,30.10,30.00,5,1,9,0.00
2013-8-24,83.0,69.0,54.8,59.9,54.5,49.2,94,65,33,30.21,30.10,5,1,10,0.00
2013-8-25,85.9,74.4,61.8,63.6,59.2,55.4,84,61,43,30.18,30.03,8,2,16,0.00
2013-8-26,83.8,75.6,67.1,69.4,65.3,61.9,85,71,59,30.05,29.88,6,2,12,0.00
2013-8-27,90.3,81.1,73.0,72.9,69.8,66.1,93,70,48,29.90,29.69,7,3,13,0.00
2013-8-28,84.0,76.5,72.0,73.0,69.8,65.7,93,81,55,29.93,29.69,4,1,6,0.00
2013-8-29,88.6,76.7,66.4,69.7,65.0,59.5,94,71,39,30.00,29.90,3,0,6,0.00
2013-8-30,88.4,76.4,66.4,70.6,66.7,64.2,93,74,48,29.90,29.64,7,2,14,0.00
2013-8-31,80.3,71.3,63.2,65.8,62.3,60.6,93,75,54,29.77,29.70,4,1,7,0.00
2013-9-1,84.3,72.2,63.9,68.5,65.0,60.7,92,79,55,29.76,29.62,5,1,8,0.00
2013-9-2,71.1,64.8,59.5,67.4,56.5,48.7,92,75,59,29.89,29.66,7,2,12,0.00
2013-9-3,73.2,63.3,53.5,53.7,51.5,49.2,86,67,46,29.98,29.88,5,2,10,0.00
2013-9-4,78.8,65.9,54.7,60.6,56.5,52.1,94,74,43,30.03,29.94,7,2,13,0.00
2013-9-5,73.0,62.7,52.6,58.6,46.1,35.4,88,59,27,30.20,30.03,6,1,8,0.00
2013-9-6,80.3,64.2,48.6,54.6,49.1,43.8,93,63,29,30.18,29.94,4,1,12,0.00
2013-9-7,80.5,71.0,64.3,66.0,61.1,52.9,89,71,57,29.93,29.82,6,1,9,0.00
2013-9-8,76.8,69.4,64.7,64.2,58.7,52.7,93,71,44,30.00,29.86,6,2,8,0.00
2013-9-9,84.9,71.9,60.2,70.6,63.4,53.1,95,76,57,29.95,29.73,5,2,8,0.00
2013-9-10,91.8,83.2,75.8,70.6,64.5,59.3,79,55,35,29.88,29.73,8,3,13,0.00
2013-9-11,84.3,76.3,66.6,68.9,64.3,60.0,88,67,45,29.95,29.85,5,1,12,0.00
2013-9-12,75.8,66.6,56.3,64.7,55.1,46.3,93,69,40,29.97,29.82,9,2,17,0.00
2013-9-13,63.4,54.9,47.6,46.5,40.7,31.0,85,61,30,30.08,29.97,7,3,13,0.00
2013-9-14,68.4,54.0,39.9,50.6,44.1,37.4,94,71,41,30.11,29.98,6,1,11,0.00
2013-9-15,59.0,55.8,49.8,55.4,49.5,39.7,93,80,53,30.08,29.96,3,0,6,0.00
2013-9-16,61.0,54.1,46.7,53.6,46.0,41.4,93,76,50,30.30,30.08,5,2,9,0.00
2013-9-17,68.6,54.0,39.8,48.8,42.6,37.1,93,68,41,30.34,30.11,3,1,7,0.00
2013-9-18,78.1,63.9,51.7,56.2,51.6,46.5,85,67,43,30.11,29.88,6,1,9,0.00
2013-9-19,74.6,68.2,61.8,67.7,62.7,53.5,94,83,65,29.90,29.74,5,2,10,0.00
2013-9-20,73.2,70.0,62.6,68.1,63.6,56.0,86,80,76,29.75,29.63,6,3,13,0.00
2013-9-21,63.5,58.7,52.9,56.1,49.4,44.1,87,72,51,29.84,29.64,6,2,11,0.00
2013-9-22,54.2,51.3,45.4,46.5,42.5,39.5,91,73,58,30.02,29.84,5,1,12,0.00
2013-9-23,64.0,50.2,37.6,46.2,41.1,35.4,92,74,46,30.08,30.02,3,0,6,0.00
2013-9-24,68.8,54.7,42.6,48.3,44.9,40.2,93,72,43,30.07,29.91,3,1,8,0.00
2013-9-25,71.6,57.0,45.5,51.6,46.8,43.3,94,72,39,29.94,29.88,4,1,7,0.00
2013-9-26,74.9,59.2,45.2,52.2,47.2,43.2,95,69,34,30.04,29.92,3,0,7,0.00
2013-9-27,77.7,61.9,47.0,53.8,49.6,45.1,95,69,36,30.14,30.04,4,1,7,0.00
2013-9-28,79.8,66.0,53.1,56.8,51.7,49.0,93,64,35,30.07,29.83,6,2,12,0.00
2013-9-29,72.5,62.0,51.1,61.0,51.9,46.3,94,72,48,29.94,29.81,5,2,10,0.00
2013-9-30,71.5,58.6,48.0,53.6,49.5,45.8,94,75,41,29.93,29.83,4,1,6,0.00
2013-10-1,72.7,63.0,51.6,62.1,57.8,49.4,94,84,69,29.88,29.81,7,2,16,0.00
2013-10-2,76.8,64.7,52.2,60.7,49.4,35.6,95,65,23,30.02,29.84,2,0,6,0.00
2013-10-3,77.7,64.1,50.8,66.1,57.3,45.1,91,79,64,29.96,29.81,6,1,12,0.00
2013-10-4,78.1,69.5,64.8,65.3,63.6,62.1,92,82,63,29.91,29.81,4,1,7,0.00
2013-10-5,75.6,69.2,64.7,68.9,65.1,62.7,94,87,75,29.92,29.69,6,1,8,0.00
2013-10-6,69.9,59.8,51.4,64.9,55.4,45.2,92,85,60,29.70,29.59,7,2,10,0.00
2013-10-7,60.2,52.2,45.4,50.8,45.8,42.6,93,80,56,30.02,29.61,6,2,14,0.00
2013-10-8,72.0,55.9,41.9,49.9,45.4,40.0,95,72,41,30.15,30.02,5,1,8,0.00
2013-10-9,70.8,57.2,45.1,48.7,45.2,42.3,93,68,37,30.22,30.10,3,0,6,0.00
2013-10-10,73.3,56.1,41.6,51.6,45.3,39.7,95,72,36,30.14,30.02,3,0,5,0.00
2013-10-11,70.6,55.6,41.6,49.9,44.0,35.6,95,70,30,30.08,29.95,3,1,6,0.00
2013-10-12,77.7,61.5,48.8,60.9,51.5,43.9,93,73,41,30.02,29.90,7,1,12,0.00
2013-10-13,61.2,52.8,42.9,56.3,45.4,41.0,95,78,51,30.32,30.02,6,1,7,0.00
2013-10-14,61.3,49.0,37.2,46.4,38.1,33.1,95,70,36,30.37,30.17,5,1,8,0.00
2013-10-15,64.0,54.4,44.6,59.5,49.1,40.4,93,83,69,30.16,29.69,4,2,7,0.00
2013-10-16,60.7,52.7,50.8,56.4,47.5,44.0,93,83,74,29.81,29.70,5,2,11,0.00
2013-10-17,51.6,48.5,41.1,49.9,46.4,38.5,94,93,88,29.81,29.67,5,1,10,0.00
2013-10-18,58.7,46.9,38.6,49.5,41.2,36.8,95,82,63,29.83,29.76,8,2,17,0.00
2013-10-19,52.0,45.2,40.9,41.9,38.4,29.9,92,78,44,29.80,29.67,7,1,14,0.00
2013-10-20,56.2,47.6,37.6,48.9,39.5,33.6,93,76,47,29.81,29.65,5,1,10,0.00
2013-10-21,53.5,47.4,40.3,50.4,38.8,23.1,92,73,50,29.83,29.67,7,3,14,0.00
2013-10-22,47.9,41.2,34.0,34.5,29.3,22.5,90,64,49,29.85,29.81,7,3,15,0.00
2013-10-23,43.3,36.2,30.9,37.4,32.1,26.2,94,86,51,29.86,29.80,4,1,7,0.00
2013-10-24,43.8,39.0,36.2,35.8,31.4,27.4,86,74,57,30.14,30.01,7,2,11,0.00
2013-10-25,46.1,39.7,32.4,35.6,30.8,25.5,91,72,47,30.28,29.93,8,2,18,0.00
2013-10-26,53.5,47.8,40.1,39.1,33.2,29.5,71,57,48,29.95,29.68,13,5,20,0.00
2013-10-27,51.9,42.6,35.5,34.8,32.3,30.3,86,68,47,29.98,29.89,8,2,18,0.00
2013-10-28,48.5,39.5,32.7,39.6,32.4,29.5,93,77,58,30.34,29.97,5,1,12,0.00
2013-10-29,50.1,42.5,38.8,36.7,30.9,26.4,78,63,56,30.36,30.16,4,2,10,0.00
2013-10-30,63.7,49.5,34.9,54.4,41.9,32.0,92,77,49,30.15,29.78,4,1,10,0.00
2013-10-31,62.4,59.4,54.5,60.7,57.8,52.8,95,94,92,29.76,29.00,7,3,22,29.45
2013-11-1,54.4,46.7,44.3,52.4,43.1,38.7,94,87,75,29.60,29.09,12,4,29,28.93
2013-11-2,47.7,44.5,41.1,44.2,38.9,32.2,94,82,56,30.04,29.59,5,2,11,28.85
2013-11-3,49.5,41.7,34.3,37.5,32.0,29.5,90,70,49,30.31,30.04,4,2,10,29.88
2013-11-4,52.5,45.0,38.3,38.2,31.7,29.1,78,61,43,30.32,30.13,7,4,13,0.00
2013-11-5,59.8,53.0,49.6,46.5,43.2,38.3,80,69,57,30.23,29.97,6,3,8,0.00
2013-11-6,55.6,49.5,40.5,53.4,46.1,37.2,94,88,62,29.97,29.65,9,4,13,0.00
2013-11-7,43.3,38.3,34.9,36.8,28.5,25.2,88,68,54,30.11,29.96,6,3,18,0.00
2013-11-8,44.1,38.7,32.9,31.1,27.8,23.7,87,66,47,30.23,30.01,5,1,10,0.00
2013-11-9,51.0,47.5,40.8,40.7,34.9,28.4,70,62,53,30.00,29.73,11,6,24,0.00
2013-11-10,46.1,41.2,32.1,30.7,28.6,25.9,85,61,50,30.21,29.87,8,4,18,0.00
2013-11-11,46.0,36.4,26.3,37.6,28.7,17.8,90,74,60,30.35,29.97,8,4,16,0.00
2013-11-12,34.3,27.2,21.0,22.8,17.6,13.0,85,68,44,30.55,30.35,8,2,19,0.00
2013-11-13,41.1,30.3,18.9,25.0,19.9,15.4,88,67,42,30.49,30.07,10,4,19,0.00
2013-11-14,46.1,40.7,31.9,30.6,26.3,22.2,68,57,43,30.08,29.88,10,4,20,0.00
2013-11-15,48.5,42.4,36.0,34.1,29.5,26.7,77,60,46,29.93,29.87,6,3,11,0.00
2013-11-16,55.7,47.5,35.6,53.4,41.1,28.7,92,78,71,29.94,29.54,13,4,17,0.24
2013-11-17,64.3,55.8,42.5,58.4,52.2,34.5,92,88,67,29.56,29.07,18,8,28,1.23
2013-11-18,45.4,38.3,34.6,36.2,26.9,21.3,70,64,56,30.12,29.47,11,7,24,0.19
2013-11-19,40.8,34.8,28.5,25.8,21.2,19.6,74,58,43,30.32,30.12,7,2,13,0.13
2013-11-20,44.3,36.3,28.2,31.9,22.6,18.0,76,59,35,30.32,30.12,6,2,12,0.00
2013-11-21,50.5,44.7,38.0,44.3,38.0,32.0,92,78,65,30.16,30.08,6,1,9,0.10
2013-11-22,45.2,36.4,26.0,43.3,30.8,21.4,93,80,62,30.36,30.08,10,4,17,0.00
2013-11-23,31.2,23.7,17.3,21.8,12.8,5.5,85,63,44,30.55,30.25,13,6,21,0.00
2013-11-24,24.4,20.2,16.9,16.4,9.7,3.0,79,64,45,30.59,30.31,8,3,19,0.00
2013-11-25,33.7,26.9,21.1,29.1,18.6,6.4,93,72,50,30.31,29.98,10,7,19,0.00
2013-11-26,33.8,30.8,24.5,27.9,23.5,12.9,81,74,57,29.99,29.90,8,4,14,0.00
2013-11-27,28.8,23.7,19.9,17.4,12.6,8.5,75,63,46,30.17,29.99,10,4,16,0.00
2013-11-28,26.1,23.6,19.4,21.4,17.6,13.0,88,78,59,30.38,30.16,7,1,11,0.00
2013-11-29,31.8,24.9,16.5,23.0,19.0,13.3,89,79,64,30.60,30.39,3,1,7,0.01
2013-11-30,43.9,35.7,25.8,31.1,24.1,18.1,75,63,54,30.43,29.98,8,3,12,0.01
2013-12-1,41.8,37.1,33.5,32.7,28.0,22.8,87,70,53,30.03,29.95,7,1,12,0.00
2013-12-2,40.3,34.7,29.8,28.7,25.1,20.5,87,69,51,29.94,29.81,4,1,7,0.00
2013-12-3,35.2,33.3,30.0,33.6,28.8,20.4,94,84,60,29.82,29.72,6,4,11,0.63
2013-12-4,57.2,44.7,35.2,53.2,42.6,33.6,95,92,75,29.77,29.45,10,4,16,0.02
2013-12-5,55.0,35.6,26.7,49.1,26.2,15.6,82,68,58,30.13,29.47,12,7,22,0.00
2013-12-6,26.7,22.3,19.5,15.8,13.6,11.7,80,69,62,30.39,30.13,6,3,12,0.00
2013-12-7,19.5,17.0,11.2,14.8,10.4,6.8,83,75,68,30.59,30.39,5,2,10,0.00
2013-12-8,20.6,17.2,11.7,17.0,11.0,6.5,86,77,59,30.55,29.93,7,2,11,0.00
2013-12-9,27.9,23.1,16.1,24.8,15.7,5.5,89,74,57,30.08,29.81,13,6,21,0.00
2013-12-10,20.8,15.6,10.2,12.1,7.9,1.7,82,71,65,30.15,29.89,13,5,19,0.00
2013-12-11,20.3,16.0,11.6,15.7,10.7,6.4,86,79,67,30.42,30.15,7,3,11,0.00
2013-12-12,24.4,16.5,10.2,18.8,11.6,3.8,86,81,72,30.41,30.12,9,3,13,0.00
2013-12-13,27.9,24.9,20.6,20.6,17.5,13.0,81,73,63,30.20,30.09,6,2,7,0.00
2013-12-14,20.6,18.8,16.4,16.0,13.8,9.9,85,80,72,30.19,29.86,7,4,17,0.00
2013-12-15,22.9,18.5,14.8,19.4,12.4,6.1,87,77,62,30.02,29.78,6,3,13,0.00
2013-12-16,23.3,15.0,5.2,12.4,7.8,0.6,84,73,55,30.13,29.96,4,1,7,0.00
2013-12-17,29.8,25.4,17.2,27.7,21.3,12.1,93,85,74,29.96,29.79,9,3,13,0.00
2013-12-18,32.4,27.4,25.0,24.2,16.8,10.3,88,65,49,30.08,29.76,7,4,12,0.00
2013-12-19,38.3,34.4,28.5,34.3,28.6,22.0,91,80,65,29.89,29.74,6,2,11,0.14
2013-12-20,32.5,31.4,29.4,30.4,29.1,26.8,92,91,90,29.81,29.69,5,2,9,0.00
2013-12-21,32.4,31.4,29.4,30.7,29.6,26.3,94,93,88,29.81,29.65,0,0,0,0.00
2013-12-22,31.2,29.6,26.0,28.6,26.5,22.8,90,88,85,29.95,29.54,0,0,0,0.00
2013-12-23,26.6,23.2,16.7,22.9,19.0,12.4,88,84,76,30.27,29.97,0,0,0,0.00
2013-12-24,21.9,16.6,12.1,15.4,11.7,7.4,85,81,70,30.46,30.26,0,0,0,0.01
2013-12-25,24.7,19.8,13.1,22.4,15.8,8.2,91,84,76,30.40,30.00,0,0,0,0.00
2013-12-26,26.4,24.3,21.1,24.1,20.5,15.6,92,86,75,30.19,29.97,0,0,0,0.00
2013-12-27,39.6,31.6,26.6,31.5,27.1,24.1,92,84,67,30.24,29.97,9,2,17,0.27
2013-12-28,45.7,39.7,30.7,32.7,30.7,27.6,90,71,55,30.01,29.76,9,4,17,0.36
2013-12-29,42.9,31.0,18.1,32.0,22.4,6.5,85,71,58,30.03,29.66,10,6,18,0.01
2013-12-30,18.0,16.0,14.1,10.9,6.6,1.3,79,66,55,30.24,30.04,6,2,10,0.00
2013-12-31,17.2,14.9,12.6,12.0,9.7,7.0,83,79,72,30.31,30.06,6,2,11,0.00
2014-1-1,13.1,11.4,10.5,7.6,3.2,-0.8,79,69,56,30.37,30.23,5,2,10,0.00
2014-1-2,13.3,9.6,-1.6,5.8,0.1,-7.8,76,65,48,30.34,30.16,11,4,18,0.00